Location: Marse
(42.1502°N, 110.9866°W)
Time: 11:26:08
(UTC+00:00)

Transit 2A - Visible Passes

Search period start: 28 May 2022 00:00
Search period end: 07 June 2022 00:00
Orbit: 598 x 959 km, 66.7° (Epoch: 27 May)

Date Brightness Start Highest point End Pass type
(mag) Time Alt. Az. Time Alt. Az. Time Alt. Az.
30 May 8.4 11:17:41 10° SSE 11:22:10 22° ESE 11:26:23 10° ENE visible
31 May 8.7 10:44:47 10° SE 10:48:02 15° ESE 10:51:09 10° ENE visible
02 Jun 7.1 11:16:23 10° S 11:22:06 49° ESE 11:27:20 10° NE visible
03 Jun 7.6 10:42:36 10° S 10:47:52 34° ESE 10:52:45 10° NE visible
04 Jun 8.0 10:09:07 10° SSE 10:13:40 23° ESE 10:17:58 10° ENE visible
05 Jun 8.4 09:36:07 10° SE 09:39:32 16° ESE 09:42:48 10° ENE visible
06 Jun 8.7 09:04:51 10° ESE 09:05:27 10° ESE 09:06:02 10° E visible
06 Jun 6.3 10:42:05 10° SSW 10:47:54 74° ESE 10:53:16 10° NE visible
